Weather History for Sturgis, MI

Change the Weather History Date:

Saturday, July 20, 2013

  Actual Average (KHAI) Record (KHAI)
Temperature  
Mean Temperature 76 °F -  
Max Temperature 84 °F 85 °F 98 °F (1980)
Min Temperature 68 °F 62 °F 46 °F (1951)
Cooling Degree Days 11    
Growing Degree Days 26 (Base 50)    
Moisture  
Dew Point 67 °F    
Average Humidity 74    
Maximum Humidity 94    
Minimum Humidity 45    
Precipitation  
Precipitation 0.00 in - - ()
Sea Level Pressure  
Sea Level Pressure 29.86 in    
Wind  
Wind Speed 6 mph (NNW)    
Max Wind Speed 14 mph    
Max Gust Speed 18 mph    
Visibility 10 miles    
Events Rain    
Averages and records for this station are not official NWS values.
T = Trace of Precipitation, MM = Missing Value Source: NWS Daily Summary

Daily Weather History Graph

Daily Weather History Graph

Search for Another Location

Airport:

Trip Planner

Search our weather history database for the weather conditions in past years. The results will help you decide how hot, cold, wet, or windy it might be!

Date:

Astronomy

Jul. 20, 2013 Rise Set
Actual Time 6:24 AM EDT 9:11 PM EDT
Civil Twilight 5:51 AM EDT 9:43 PM EDT
Nautical Twilight 5:10 AM EDT 10:24 PM EDT
Astronomical Twilight 4:23 AM EDT 11:11 PM EDT
Moon 7:13 PM EDT (7/20) 4:03 AM EDT (7/20)
Length of Visible Light 15h 51m
Length of Day
14h 46m
Waxing Gibbous, 93% of the Moon is Illuminated
Jul 20
Waxing Gibbous
Jul 22
Full
Jul 29
Last Quarter
Aug 6
New
Aug 14
First Quarter

Hourly Weather History & Observations

Time (EDT) Temp. Heat Index Dew Point Humidity Pressure Visibility Wind Dir Wind Speed Gust Speed Precip Events Conditions
12:15 AM 80.6 °F 85.4 °F 73.4 °F 79% 29.79 in 10.0 mi SW 11.5 mph - N/A   Scattered Clouds
12:34 AM 80.6 °F 85.4 °F 73.4 °F 79% 29.79 in 10.0 mi SW 13.8 mph 18.4 mph N/A   Scattered Clouds
12:55 AM 80.6 °F 85.4 °F 73.4 °F 79% 29.79 in 10.0 mi SW 10.4 mph - N/A   Scattered Clouds
1:15 AM 80.6 °F 85.4 °F 73.4 °F 79% 29.80 in 10.0 mi WSW 11.5 mph - N/A   Mostly Cloudy
1:34 AM 80.6 °F 85.4 °F 73.4 °F 79% 29.80 in 10.0 mi WSW 8.1 mph - N/A   Scattered Clouds
1:55 AM 78.8 °F - 75.2 °F 89% 29.80 in 10.0 mi SW 12.7 mph 18.4 mph N/A Rain Light Rain
2:14 AM 75.2 °F - 71.6 °F 89% 29.81 in 10.0 mi SW 8.1 mph - N/A   Scattered Clouds
2:35 AM 75.2 °F - 71.6 °F 89% 29.80 in 10.0 mi WSW 3.5 mph - N/A   Scattered Clouds
2:55 AM 77.0 °F - 71.6 °F 83% 29.79 in 10.0 mi WSW 5.8 mph - N/A   Scattered Clouds
3:14 AM 75.2 °F - 71.6 °F 89% 29.81 in 4.0 mi West 12.7 mph 18.4 mph N/A Rain Light Rain
3:34 AM 75.2 °F - 71.6 °F 89% 29.80 in 10.0 mi WNW 3.5 mph - N/A   Mostly Cloudy
3:55 AM 73.4 °F - 71.6 °F 94% 29.79 in 10.0 mi Calm Calm - N/A   Scattered Clouds
4:14 AM 73.4 °F - 71.6 °F 94% 29.78 in 10.0 mi Calm Calm - N/A   Clear
4:35 AM 73.4 °F - 71.6 °F 94% 29.79 in 10.0 mi West 4.6 mph - N/A   Scattered Clouds
4:55 AM 73.4 °F - 71.6 °F 94% 29.78 in 10.0 mi Calm Calm - N/A   Mostly Cloudy
5:14 AM 73.4 °F - 71.6 °F 94% 29.79 in 10.0 mi West 3.5 mph - N/A   Mostly Cloudy
5:35 AM 73.4 °F - 71.6 °F 94% 29.79 in 10.0 mi Calm Calm - N/A   Mostly Cloudy
5:55 AM 73.4 °F - 71.6 °F 94% 29.80 in 10.0 mi West 4.6 mph - N/A   Overcast
6:14 AM 73.4 °F - 71.6 °F 94% 29.80 in 10.0 mi West 4.6 mph - N/A   Mostly Cloudy
6:35 AM 73.4 °F - 71.6 °F 94% 29.81 in 10.0 mi West 5.8 mph - N/A   Scattered Clouds
6:55 AM 73.4 °F - 71.6 °F 94% 29.82 in 10.0 mi NW 3.5 mph - N/A   Mostly Cloudy
7:14 AM 73.4 °F - 71.6 °F 94% 29.83 in 10.0 mi WNW 3.5 mph - N/A   Scattered Clouds
7:35 AM 73.4 °F - 71.6 °F 94% 29.83 in 10.0 mi NW 4.6 mph - N/A   Clear
7:55 AM 73.4 °F - 71.6 °F 94% 29.83 in 10.0 mi NNW 4.6 mph - N/A   Clear
8:14 AM 73.4 °F - 71.6 °F 94% 29.84 in 10.0 mi NNW 4.6 mph - N/A   Clear
8:35 AM 75.2 °F - 71.6 °F 89% 29.85 in 10.0 mi North 6.9 mph - N/A   Scattered Clouds
8:54 AM 73.4 °F - 71.6 °F 94% 29.85 in 10.0 mi North 6.9 mph - N/A   Mostly Cloudy
9:15 AM 73.4 °F - 71.6 °F 94% 29.87 in 10.0 mi North 5.8 mph - N/A   Mostly Cloudy
9:34 AM 75.2 °F - 71.6 °F 89% 29.86 in 10.0 mi NE 3.5 mph - N/A   Scattered Clouds
9:55 AM 75.2 °F - 69.8 °F 83% 29.87 in 10.0 mi NE 5.8 mph - N/A   Clear
10:15 AM 77.0 °F - 71.6 °F 83% 29.87 in 10.0 mi NNE 5.8 mph - N/A   Clear
10:34 AM 77.0 °F - 71.6 °F 83% 29.88 in 10.0 mi NNE 6.9 mph - N/A   Clear
10:55 AM 77.0 °F - 71.6 °F 83% 29.88 in 10.0 mi NNE 8.1 mph - N/A   Clear
11:15 AM 78.8 °F - 69.8 °F 74% 29.89 in 10.0 mi NNE 4.6 mph - N/A   Clear
11:34 AM 78.8 °F - 69.8 °F 74% 29.88 in 10.0 mi North 4.6 mph - N/A   Scattered Clouds
11:55 AM 80.6 °F 83.2 °F 68.0 °F 65% 29.89 in 10.0 mi NE 5.8 mph - N/A   Clear
12:14 PM 80.6 °F 83.9 °F 69.8 °F 70% 29.88 in 10.0 mi NNE 5.8 mph - N/A   Scattered Clouds
12:35 PM 80.6 °F 82.7 °F 66.2 °F 61% 29.88 in 10.0 mi Calm Calm - N/A   Scattered Clouds
12:55 PM 80.6 °F 82.7 °F 66.2 °F 61% 29.88 in 10.0 mi Calm Calm - N/A   Clear
1:14 PM 80.6 °F 82.7 °F 66.2 °F 61% 29.89 in 10.0 mi North 6.9 mph - N/A   Scattered Clouds
1:35 PM 82.4 °F 83.9 °F 64.4 °F 54% 29.89 in 10.0 mi Calm Calm - N/A   Scattered Clouds
1:55 PM 82.4 °F 83.4 °F 62.6 °F 51% 29.89 in 10.0 mi Calm Calm - N/A   Scattered Clouds
2:14 PM 82.4 °F 83.9 °F 64.4 °F 54% 29.89 in 10.0 mi NNW 4.6 mph - N/A   Scattered Clouds
2:35 PM 82.4 °F 83.4 °F 62.6 °F 51% 29.88 in 10.0 mi North 6.9 mph - N/A   Scattered Clouds
2:55 PM 82.4 °F 83.4 °F 62.6 °F 51% 29.87 in 10.0 mi NNW 4.6 mph - N/A   Scattered Clouds
3:14 PM 82.4 °F 83.4 °F 62.6 °F 51% 29.87 in 10.0 mi NNW 9.2 mph - N/A   Scattered Clouds
3:35 PM 82.4 °F 82.9 °F 60.8 °F 48% 29.87 in 10.0 mi NW 5.8 mph - N/A   Scattered Clouds
3:55 PM 82.4 °F 83.9 °F 64.4 °F 54% 29.87 in 10.0 mi Calm Calm - N/A   Mostly Cloudy
4:14 PM 80.6 °F 82.3 °F 64.4 °F 58% 29.88 in 10.0 mi North 3.5 mph - N/A   Mostly Cloudy
4:35 PM 84.2 °F 85.0 °F 62.6 °F 48% 29.88 in 10.0 mi Calm Calm - N/A   Mostly Cloudy
4:54 PM 82.4 °F 83.4 °F 62.6 °F 51% 29.88 in 10.0 mi North 4.6 mph - N/A   Scattered Clouds
5:15 PM 84.2 °F 84.4 °F 60.8 °F 45% 29.87 in 10.0 mi NNW 5.8 mph - N/A   Scattered Clouds
5:35 PM 82.4 °F 83.4 °F 62.6 °F 51% 29.87 in 10.0 mi North 5.8 mph - N/A   Clear
5:54 PM 82.4 °F 83.4 °F 62.6 °F 51% 29.87 in 10.0 mi North 5.8 mph - N/A   Scattered Clouds
6:15 PM 80.6 °F 81.8 °F 62.6 °F 54% 29.87 in 10.0 mi North 5.8 mph - N/A   Scattered Clouds
6:35 PM 80.6 °F 81.8 °F 62.6 °F 54% 29.87 in 10.0 mi North 4.6 mph - N/A   Scattered Clouds
6:54 PM 82.4 °F 83.9 °F 64.4 °F 54% 29.88 in 10.0 mi NW 6.9 mph - N/A   Clear
7:15 PM 80.6 °F 81.8 °F 62.6 °F 54% 29.88 in 10.0 mi NNW 6.9 mph - N/A   Clear
7:35 PM 80.6 °F 81.8 °F 62.6 °F 54% 29.88 in 10.0 mi NNW 6.9 mph - N/A   Clear
7:54 PM 78.8 °F - 60.8 °F 54% 29.89 in 10.0 mi NNW 5.8 mph - N/A   Clear
8:15 PM 78.8 °F - 62.6 °F 57% 29.90 in 10.0 mi NNW 4.6 mph - N/A   Clear
8:34 PM 75.2 °F - 62.6 °F 65% 29.90 in 10.0 mi North 4.6 mph - N/A   Clear
8:55 PM 75.2 °F - 60.8 °F 61% 29.90 in 10.0 mi North 3.5 mph - N/A   Clear
9:15 PM 73.4 °F - 60.8 °F 65% 29.91 in 10.0 mi Calm Calm - N/A   Clear
9:34 PM 73.4 °F - 60.8 °F 65% 29.92 in 10.0 mi Calm Calm - N/A   Clear
9:55 PM 69.8 °F - 62.6 °F 78% 29.93 in 10.0 mi NNW 4.6 mph - N/A   Clear
10:14 PM 69.8 °F - 62.6 °F 78% 29.94 in 10.0 mi NNW 3.5 mph - N/A   Clear
10:35 PM 71.6 °F - 62.6 °F 73% 29.94 in 10.0 mi Calm Calm - N/A   Clear
10:55 PM 69.8 °F - 64.4 °F 83% 29.94 in 10.0 mi Calm Calm - N/A   Clear
11:14 PM 69.8 °F - 62.6 °F 78% 29.94 in 10.0 mi Calm Calm - N/A   Clear
11:35 PM 68.0 °F - 62.6 °F 83% 29.94 in 10.0 mi Calm Calm - N/A   Clear
11:55 PM 68.0 °F - 64.4 °F 88% 29.94 in 10.0 mi Calm Calm - N/A   Clear